Погода в Бхиванди

Индия     19°16′57″N   73°04′30″E
темп.,
°C
ветер,
м/с
пор.,
м/с
влажн.,
%
обл.,
%
осадки,
мм/ч
давл.,
гПа
погр.,
м
13 мая, чт
чт1323:30+30зюз2360100 0.0 1006927
02:30+29зюз2266100 0.0 1005841
05:30+28з126899 0.0 1005484
08:30+30з2260100 0.0 10071057
11:30+33з3342100 0.0 10061280
14:30+35з643337 0.0 10031318
17:30+34зсз553697 0.0 10021002
20:30+31зсз34504 0.0 1004659
14 мая, пт
пт1423:30+30сз235572 0.0 1004411
02:30+29ссз125999 0.0 1003339
05:30+28ссз126190 0.0 1003358
08:30+30с115483 0.0 1005703
11:30+35зсз3231100 0.0 10031189
14:30+35з6437100 0.0 10011157
17:30+33зсз6647100 0.0 999580
20:30+31сз2354100 0.0 1002538
15 мая, сб
сб1523:30+31ссз225599 0.0 1002433
02:30+30ссз2261100 0.0 1001422
05:30+30ссз2259100 0.0 1001333
08:30+32ссв354888 0.0 1001391
11:30+39ссв5622100 0.0 10001373
14:30+41ссв3619100 0.0 9972536
17:30+39ссв2528100 0.1 9951133
20:30+36ссз3533100 0.3 997245
16 мая, вс
вс1623:30+35ююв1235100 0.3 998159
02:30+34ю4840100 0.0 998656
05:30+33сз114898 0.0 997186
08:30+34ссв2442100 0.0 998498
11:30+31юв3857100 2.1 999806
14:30+37всв71537100 0.1 9952744
17:30+36юв61339100 0.2 9951751
20:30+32вюв81649100 0.3 9971455
17 мая, пн
пн1723:30+32в71550100 0.6 9971499
02:30+30юв61357100 0.1 9961512
05:30+30вюв61555100 0.2 9961740
08:30+32ююв91850100 0.1 9991926
11:30+32ююв101747100 0.2 10002045
14:30+32ю121855100 0.3 9991882
17:30+29ююв71558100 0.4 10001464
20:30+30ююв71551100 0.0 10011400